Location: Aressy
(43.2833°N, 0.3167°W)
Time: 06:39:46
(UTC+00:00)

Cosmos 372 Rocket - Visible Passes

Search period start: 09 May 2021 00:00
Search period end: 19 May 2021 00:00
Orbit: 739 x 767 km, 74.1° (Epoch: 08 May)

Date Brightness Start Highest point End Pass type
(mag) Time Alt. Az. Time Alt. Az. Time Alt. Az.
09 May 5.9 01:10:31 18° WNW 01:11:32 19° NW 01:15:06 10° N visible
09 May 5.3 22:49:28 27° ENE 22:49:28 27° ENE 22:52:28 10° NE visible
10 May 5.2 00:29:24 32° WNW 00:29:39 32° WNW 00:34:12 10° N visible
10 May 5.9 22:08:19 15° ENE 22:08:19 15° ENE 22:09:59 10° NE visible
10 May 4.4 23:48:14 56° NW 23:48:14 56° NW 23:52:57 10° NNE visible
11 May 4.1 23:07:02 65° NE 23:07:02 65° NE 23:11:28 10° NNE visible
12 May 6.2 00:46:56 13° WNW 00:48:43 15° NW 00:51:44 10° NNW visible
12 May 4.7 22:25:47 37° ENE 22:25:47 37° ENE 22:29:40 10° NE visible
13 May 5.5 00:05:42 24° W 00:06:47 26° WNW 00:11:03 10° N visible
13 May 5.4 21:44:30 21° E 21:44:30 21° E 21:47:27 10° NE visible
13 May 4.6 23:24:23 44° W 23:25:00 46° WNW 23:29:55 10° N visible
14 May 6.0 21:03:08 11° E 21:03:08 11° E 21:03:54 10° ENE visible
14 May 3.8 22:43:02 78° SW 22:43:22 85° WNW 22:48:30 10° NNE visible
15 May 6.5 00:23:40 10° WNW 00:25:56 13° NW 00:28:12 10° NNW visible
15 May 4.1 22:01:37 50° ESE 22:01:54 51° ESE 22:06:50 10° NNE visible
15 May 6.0 23:41:31 16° W 23:43:56 22° WNW 23:47:51 10° N visible
16 May 4.9 21:20:07 27° ESE 21:20:33 27° E 21:24:48 10° NE visible
16 May 5.1 23:00:00 26° WSW 23:02:06 37° WNW 23:06:50 10° N visible
17 May 5.6 20:38:31 14° ESE 20:39:20 14° E 20:42:00 10° ENE visible
17 May 4.1 22:18:24 36° SW 22:20:25 69° WNW 22:25:31 10° NNE visible
18 May 6.8 00:02:14 10° WNW 00:03:10 10° NW 00:04:07 10° NW visible
18 May 3.9 21:36:41 33° S 21:38:53 64° ESE 21:43:56 10° NNE visible
18 May 6.3 23:17:39 10° W 23:21:06 18° NW 23:24:35 10° N visible
